Theta_e
336 337 336 336 336 335 335 335 335 335 333 332 333 334 332 331 331 331 331 332 331 330 329 329 329 328 328 329 332 334 334 333 332 331 331 331 331 331 331 330 330 331 332 331 331 330 330 329 328 327 324 318 312 309 309 310 309 311 315 316 317 318 318 320 320 318 319 320 321 321 321 321 321 320 321 321 320 321 320 320 320 320 321 321 321
336 337 336 336 336 336 336 336 335 335 335 333 333 332 331 331 331 331 331 331 330 330 329 329 329 328 327 328 331 333 334 334 332 331 331 331 332 332 332 331 330 330 332 332 331 331 329 329 328 327 325 322 317 314 313 313 312 311 311 311 312 313 313 316 317 316 317 317 319 320 320 320 319 319 319 320 320 320 320 320 319 319 320 321 321
336 336 336 336 336 336 336 335 334 334 334 333 333 332 331 332 332 331 330 330 330 330 329 329 329 329 328 327 329 332 333 333 332 331 331 330 331 331 331 331 331 330 331 332 332 331 329 329 328 326 325 324 322 319 318 318 318 316 313 311 310 311 312 311 310 315 316 313 315 318 318 319 318 317 317 319 320 319 320 320 319 319 319 320 320
336 336 336 335 335 336 335 334 333 333 333 332 332 332 331 332 332 331 330 330 330 329 329 329 329 329 328 327 328 330 332 333 332 331 331 329 329 331 332 332 332 330 331 332 331 331 329 329 329 328 326 325 324 322 321 321 321 321 319 316 312 311 314 311 306 311 314 313 313 314 315 317 317 318 318 318 319 319 320 319 319 319 319 320 320
336 335 335 335 334 334 334 333 333 333 332 332 332 332 332 332 331 330 330 330 330 329 329 329 329 329 328 327 327 329 331 332 332 331 332 330 328 331 333 333 332 331 332 331 331 331 330 328 328 329 328 328 325 323 323 323 324 324 322 320 315 312 313 313 310 309 312 314 314 313 312 313 315 316 315 316 318 319 319 318 318 317 318 318 318
336 335 334 334 333 333 333 333 333 333 332 333 333 332 332 331 330 330 331 331 330 330 330 329 329 329 329 328 327 328 329 330 330 331 332 331 328 330 333 334 333 332 332 331 331 331 330 329 328 328 329 329 327 326 325 324 324 325 324 322 319 314 312 314 315 312 313 315 315 312 309 309 311 312 311 312 315 316 316 316 316 316 316 317 317
335 335 335 334 333 333 332 332 332 332 332 333 333 332 331 330 330 331 332 332 331 330 329 329 329 329 329 329 328 328 327 328 329 330 331 330 328 330 333 333 333 332 331 331 331 331 330 330 328 328 328 328 327 328 328 325 324 326 325 323 321 317 313 314 316 314 315 316 312 309 308 306 308 308 308 310 312 313 312 313 314 315 316 316 316
335 335 334 333 333 333 332 332 332 332 332 332 332 332 331 331 331 332 333 333 331 328 329 330 329 329 329 329 329 328 328 328 329 330 331 330 328 329 331 332 332 332 331 331 330 331 330 330 329 328 328 327 327 328 329 327 325 325 325 323 322 321 319 318 316 314 316 315 312 314 313 308 307 308 307 308 312 312 311 312 314 315 316 316 316
334 334 333 333 333 333 332 332 332 332 332 331 332 332 332 332 332 332 333 334 332 329 328 329 329 330 329 330 329 328 328 328 329 330 331 331 328 329 329 330 330 330 330 330 330 330 330 330 329 328 328 327 327 328 328 328 326 326 326 324 322 322 323 322 319 317 316 316 315 317 317 310 306 308 305 305 310 313 313 312 313 314 314 314 314
334 334 333 333 333 332 332 332 331 331 332 332 333 333 332 331 331 332 333 334 333 331 329 328 329 329 329 330 329 329 329 328 330 331 332 331 329 328 329 329 328 328 328 329 330 330 330 330 330 329 328 327 327 327 328 328 326 327 328 326 323 322 323 323 321 320 319 319 318 319 319 315 310 310 307 305 308 311 311 310 310 311 311 312 313
334 334 333 332 332 332 332 332 331 331 331 332 333 332 331 330 331 332 332 333 333 332 330 329 328 329 329 329 330 329 329 329 330 331 331 332 331 329 330 329 328 328 327 327 329 330 329 329 329 330 329 327 327 327 328 328 326 326 327 326 324 323 325 324 323 323 321 321 321 321 320 317 316 316 313 309 308 308 308 306 306 307 307 309 311
333 334 333 332 332 332 331 331 330 330 330 331 331 331 331 331 332 332 331 332 333 332 330 329 329 328 329 329 329 329 328 328 329 330 330 331 331 331 331 330 330 330 329 327 328 329 328 328 328 329 329 328 327 326 328 328 327 327 327 327 326 325 327 326 324 323 323 324 323 323 320 317 316 317 317 314 309 308 307 304 303 303 304 306 308
333 332 332 332 332 331 331 330 330 330 330 331 331 331 331 331 331 331 331 331 332 332 329 329 329 328 329 329 328 328 328 328 328 328 329 330 330 331 332 332 331 331 331 330 329 328 328 327 327 328 328 328 327 327 328 329 328 328 328 329 329 328 328 328 327 324 324 325 325 324 323 321 318 317 318 317 313 312 312 311 309 306 303 304 305
331 331 331 332 331 331 331 330 330 330 330 330 330 330 330 331 331 331 331 331 332 332 329 329 329 328 328 328 328 328 328 328 328 328 328 329 330 330 331 331 331 331 331 331 330 328 328 328 328 328 328 327 327 327 328 328 328 329 329 329 329 329 329 330 329 327 326 326 325 325 324 324 322 320 319 319 318 318 318 318 318 314 309 306 304
332 331 331 331 330 330 330 329 329 329 329 330 330 330 331 332 332 331 331 331 331 332 331 330 329 328 328 329 330 329 329 327 328 328 328 329 329 329 330 330 330 331 331 331 331 329 328 328 329 328 328 328 328 328 327 328 328 328 328 328 328 329 329 329 329 329 328 327 326 325 324 324 323 322 321 321 320 320 321 321 321 320 319 316 314
330 330 329 329 328 329 328 328 328 329 329 329 330 331 331 331 331 329 329 330 330 331 331 330 329 328 329 330 328 329 331 328 327 328 328 328 328 329 329 329 329 330 330 330 330 330 329 329 329 329 329 329 328 328 328 328 328 328 328 328 328 328 328 329 329 329 328 328 328 327 326 326 325 324 324 323 322 322 322 322 322 322 322 323 322
327 327 327 326 326 327 327 327 328 327 327 327 329 329 329 330 329 328 328 329 330 331 331 330 329 328 329 329 329 331 331 327 327 328 328 328 328 328 329 329 329 330 330 330 330 330 330 329 329 329 329 329 328 328 328 328 328 328 328 328 328 327 327 328 329 329 328 328 329 328 328 328 327 327 327 326 326 325 325 324 324 324 324 324 324
327 327 326 325 326 326 326 326 326 326 326 327 328 328 328 328 328 328 328 329 330 330 330 330 330 328 327 328 330 332 329 326 328 328 327 327 327 328 328 328 329 329 329 329 328 329 329 329 329 328 328 328 328 327 328 328 327 328 328 328 328 327 327 327 328 328 328 328 328 328 328 328 328 328 328 328 327 327 327 327 326 325 325 324 324
327 327 326 326 325 326 326 326 326 326 326 326 327 328 327 328 327 327 328 328 329 330 330 330 330 329 329 329 329 329 327 327 328 328 328 328 327 327 328 328 328 328 328 328 327 328 328 328 328 328 327 327 327 327 327 328 328 328 327 327 327 327 327 327 327 326 327 328 328 328 327 327 328 328 327 327 327 327 327 327 328 327 325 324 325
325 325 325 325 325 325 325 326 325 326 325 325 326 327 327 327 327 327 327 328 328 329 329 329 329 329 329 329 329 328 327 327 327 327 328 328 327 326 327 328 328 327 327 327 327 327 327 327 327 326 326 326 326 327 327 327 327 327 326 326 326 326 326 327 326 325 326 327 328 327 327 328 328 327 327 326 327 327 326 327 328 328 326 325 325
324 324 323 323 324 324 325 325 325 325 325 324 325 326 327 327 327 327 327 327 327 328 328 328 329 329 329 328 328 327 327 327 326 326 326 327 328 326 325 327 327 327 327 327 327 327 327 327 326 326 325 326 326 326 326 326 326 327 327 326 326 326 326 326 326 326 326 327 327 327 327 326 325 325 325 324 325 326 326 326 327 327 327 326 326
324 323 322 322 323 324 324 323 323 323 323 324 324 325 326 327 326 326 327 327 327 327 327 328 328 328 328 328 328 327 327 326 325 325 325 325 326 325 325 326 326 326 327 327 327 326 325 325 325 325 325 325 326 325 324 323 323 325 325 325 325 325 325 324 325 326 326 325 324 322 321 320 318 318 319 319 320 322 324 325 326 325 325 325 325
322 322 321 322 323 323 321 321 320 320 321 323 324 324 324 325 325 324 324 323 322 323 324 326 327 327 327 327 327 327 327 326 325 325 324 323 325 325 324 325 326 326 327 326 324 322 322 323 323 324 324 324 323 322 321 321 322 323 324 325 325 325 325 324 324 323 321 319 316 314 313 312 311 311 311 311 312 313 315 318 318 318 318 318 318
320 321 321 322 322 321 319 320 320 320 321 322 323 323 323 323 322 320 319 317 316 317 319 320 322 323 324 325 326 326 327 327 326 325 325 324 325 324 323 325 325 326 325 323 321 320 320 321 321 321 321 321 320 319 319 318 318 319 320 321 321 320 320 319 318 315 313 312 311 309 308 308 308 307 308 308 308 308 308 309 310 310 310 310 310
320 320 320 321 321 320 319 320 320 320 322 322 321 322 323 323 321 317 316 316 315 316 316 316 317 318 320 322 325 326 326 327 326 325 325 325 324 323 323 324 324 325 325 324 322 319 317 317 318 318 318 317 317 316 314 313 313 313 313 313 312 312 311 310 310 309 308 307 306 306 306 306 306 306 306 306 306 306 306 307 307 307 307 308 308
319 319 320 320 320 319 319 320 319 319 320 320 320 320 320 321 320 316 315 315 315 315 315 315 316 317 320 322 325 326 326 326 326 325 324 324 324 323 322 323 323 324 324 323 321 317 316 316 315 315 314 314 314 312 311 310 309 309 308 308 307 306 306 305 305 305 305 305 305 305 305 304 304 304 304 304 304 304 304 304 304 305 305 305 306
318 319 319 320 319 319 319 319 318 318 318 318 317 316 317 319 318 315 315 315 314 315 315 315 316 317 318 321 324 325 326 326 326 324 324 324 324 323 322 322 322 321 319 319 318 317 316 315 314 313 311 311 311 309 308 306 306 305 305 305 304 304 305 305 305 306 306 306 306 306 306 305 305 305 305 304 304 304 304 303 303 302 302 302 302
317 318 318 319 319 318 318 318 318 318 316 315 315 314 314 316 316 315 315 314 314 314 314 315 315 316 316 317 319 320 323 325 325 323 323 322 323 323 322 322 321 318 317 317 316 316 316 315 314 313 310 309 308 307 305 305 305 305 304 305 306 306 307 306 306 306 307 307 307 306 306 305 304 305 304 304 304 303 303 303 303 302 302 302 302
316 316 316 318 319 317 316 317 317 316 314 313 315 315 314 315 315 315 314 314 313 313 313 313 314 314 315 315 314 314 318 322 324 323 322 322 322 322 322 321 319 318 318 319 317 315 316 315 314 313 311 309 307 307 307 306 307 307 306 306 307 308 307 306 306 307 308 309 309 309 307 305 303 303 303 304 304 304 303 303 302 302 302 302 302
316 315 315 316 317 317 315 315 315 314 313 314 315 315 314 314 315 315 314 313 313 313 313 312 312 313 314 314 313 313 315 317 320 320 320 321 321 321 321 321 319 317 317 318 317 315 315 315 313 312 310 308 307 308 308 308 308 309 307 307 308 309 308 307 307 308 309 309 310 310 309 308 306 306 305 306 306 306 305 305 304 303 302 302 301
316 315 314 315 316 316 316 315 314 314 314 314 314 314 314 313 314 315 314 314 314 315 315 313 312 313 314 314 313 313 313 314 315 316 316 316 317 318 320 320 319 318 316 316 316 315 314 314 311 309 309 308 308 308 309 309 309 309 308 308 308 309 308 308 308 308 308 309 310 310 309 309 309 308 308 307 307 307 306 306 305 304 303 303 302
315 315 315 316 316 316 315 315 315 314 314 314 315 315 315 314 314 315 314 314 315 315 316 315 314 313 313 314 313 313 313 314 314 314 314 315 315 316 319 319 317 317 316 314 313 313 314 312 310 309 309 308 308 309 309 310 309 309 309 308 308 309 309 309 309 308 308 309 310 309 309 309 309 308 308 308 307 307 307 306 305 304 303 303 303
316 316 316 316 316 316 316 316 316 316 316 316 316 316 315 315 315 315 315 315 314 313 315 315 315 314 313 313 313 313 313 313 314 314 314 315 315 316 317 317 315 315 315 313 311 311 312 311 310 309 309 309 308 309 310 310 310 309 309 309 309 309 309 309 309 309 309 309 310 309 309 309 309 308 308 308 307 307 307 306 305 305 304 303 303
317 318 317 316 316 317 317 316 316 316 316 317 317 316 316 316 316 316 316 316 315 314 314 314 314 313 313 313 314 314 314 314 314 314 314 315 315 315 314 314 313 312 312 312 310 309 310 310 310 309 309 309 308 309 310 310 310 310 310 309 309 308 309 309 309 309 310 310 309 309 308 308 308 308 308 307 307 307 307 306 305 304 304 303 303
318 319 318 318 319 318 317 317 318 317 317 318 317 317 318 318 317 315 316 316 315 315 315 315 314 313 313 313 314 315 315 314 314 313 314 315 315 314 313 312 312 311 311 311 310 309 309 309 310 310 309 309 308 309 309 310 310 311 311 310 310 309 309 309 309 310 310 310 309 309 308 308 307 308 307 307 307 307 306 305 305 304 303 303 303
319 319 319 320 320 319 318 319 320 319 320 320 319 318 320 320 318 316 316 317 316 316 316 316 316 316 315 314 315 316 316 315 314 314 314 314 315 314 313 313 312 312 311 310 309 309 309 309 309 309 309 308 309 309 309 309 310 310 311 310 310 309 309 309 310 310 310 310 309 309 308 307 307 307 308 308 307 307 306 305 304 304 303 303 303
320 320 320 320 320 320 319 321 321 321 321 321 320 319 320 321 320 318 318 319 319 318 317 317 317 318 318 317 317 318 318 316 315 315 314 315 315 316 316 316 315 314 312 312 310 309 309 309 309 311 310 310 311 310 309 309 310 311 311 310 310 309 310 310 311 310 310 310 309 308 308 308 307 307 308 308 307 306 305 304 303 303 303 303 303
320 320 320 320 320 321 321 321 321 322 322 322 322 321 321 322 321 321 320 321 321 320 319 318 319 319 319 319 319 319 319 318 317 316 316 315 315 316 317 317 317 316 315 315 313 311 310 310 310 312 313 313 312 311 310 310 311 312 312 311 311 311 311 311 310 310 310 309 308 308 308 308 308 308 307 307 306 305 304 303 302 302 302 303 303
320 320 320 321 321 321 321 322 322 322 323 323 323 323 323 323 322 322 322 321 322 322 321 321 321 321 320 320 320 320 320 320 319 318 317 316 315 315 316 316 317 317 317 317 315 313 312 313 312 313 314 314 313 312 311 311 312 312 312 312 312 312 311 311 310 310 310 309 308 308 308 308 307 307 307 307 306 304 303 302 301 302 303 302 302
320 321 321 321 322 321 321 322 322 322 323 323 323 323 323 324 323 323 322 321 321 321 322 321 321 320 320 321 321 321 320 320 320 320 319 318 316 315 315 316 316 316 317 317 316 315 315 315 314 314 315 315 315 314 313 312 313 313 312 312 312 312 311 311 310 310 310 309 309 308 308 308 308 308 307 306 305 303 302 302 302 303 303 302 302
320 321 321 320 321 321 321 321 320 321 321 322 323 323 323 323 323 323 322 322 321 320 321 321 321 320 320 320 321 320 320 321 320 320 320 319 317 316 316 316 316 316 316 316 316 315 315 314 314 315 315 315 315 315 313 313 313 312 312 312 312 311 311 310 309 309 309 308 308 308 308 308 307 307 306 304 303 303 302 302 303 303 302 301 301
320 320 321 320 320 321 321 320 319 319 319 320 321 322 321 322 323 322 321 321 321 320 319 320 320 320 320 320 321 320 320 321 320 321 320 320 319 318 317 317 316 316 317 317 316 315 314 314 314 314 314 314 314 314 313 312 312 311 311 311 310 309 309 309 309 308 307 306 307 307 307 306 305 304 303 303 302 302 302 302 301 300 300 300 299
321 320 321 321 320 320 321 320 319 319 319 320 320 319 319 320 321 321 321 320 320 319 319 319 320 321 320 320 321 321 321 321 320 320 320 320 320 319 318 317 317 317 317 317 317 316 315 314 314 314 313 313 312 312 311 310 310 310 309 309 308 308 307 307 306 306 306 305 304 304 304 304 302 302 302 302 301 300 300 300 299 299 299 299 299
321 321 321 321 321 321 320 320 320 320 320 319 319 318 318 319 320 321 321 320 319 319 318 319 320 320 320 320 321 321 321 321 320 320 320 320 319 318 317 316 316 317 317 317 317 316 315 314 313 313 313 312 311 311 310 310 309 308 308 307 307 306 306 304 304 304 304 303 301 301 301 301 301 301 301 300 300 299 298 298 298 298 298 298 298
321 321 321 321 321 321 321 320 320 320 320 319 318 318 318 318 320 321 321 319 319 318 317 318 320 320 321 321 321 320 320 319 319 318 317 316 314 312 312 312 313 314 316 316 316 316 315 315 314 313 312 312 311 310 310 309 308 307 307 306 305 305 304 303 302 302 301 300 299 299 299 300 300 300 299 299 299 298 298 298 298 298 298 298 298
321 321 321 321 321 321 321 321 320 320 320 319 318 317 317 317 319 319 319 319 318 318 317 317 319 321 321 321 320 319 318 317 316 316 314 313 311 309 308 309 310 311 312 313 314 314 315 315 314 313 312 311 311 310 309 307 307 306 305 305 304 303 303 302 301 300 299 298 299 299 299 299 299 299 298 298 298 297 297 297 297 297 297 297 297
321 321 321 321 321 321 321 320 320 319 319 318 317 317 318 318 319 319 319 319 318 318 317 318 320 321 321 321 320 319 318 317 316 315 314 313 312 310 309 309 309 309 308 308 309 310 311 311 312 312 311 310 309 308 306 305 305 304 303 303 302 301 301 300 299 298 298 298 298 298 298 298 297 297 297 297 297 297 296 296 297 297 297 296 296
322 321 321 321 321 320 320 320 319 319 318 317 318 319 318 319 319 318 318 318 318 318 318 319 320 321 321 321 320 318 317 317 317 316 315 314 313 312 311 310 310 309 308 307 307 308 308 309 309 309 308 307 306 305 304 303 303 302 302 301 301 300 299 299 298 298 298 298 298 297 297 297 296 296 296 296 296 296 296 296 296 296 296 296 295
322 322 322 321 320 320 319 319 319 318 318 318 319 319 319 319 317 315 315 317 317 317 318 318 319 320 321 321 319 316 316 316 316 315 314 314 313 313 312 311 310 309 308 307 307 307 307 307 306 306 305 304 303 302 302 302 302 302 301 301 300 299 299 298 298 298 298 298 297 297 296 296 295 295 295 295 296 296 295 295 295 295 295 294 294
321 321 320 320 319 319 319 319 319 318 318 319 318 317 318 317 314 312 314 316 316 316 316 316 317 318 319 319 318 316 315 314 313 312 311 311 312 312 312 311 310 308 307 307 306 306 305 305 304 304 303 302 302 302 302 302 302 302 302 301 301 299 298 298 297 298 298 297 296 296 296 295 295 294 294 294 295 295 295 295 294 294 293 293 293
320 320 320 319 319 318 318 319 319 318 318 318 316 315 314 312 310 311 315 315 315 316 315 316 316 317 317 317 316 316 314 312 309 307 307 307 307 308 310 310 309 308 307 307 306 305 305 304 303 302 301 301 301 301 301 300 300 301 301 301 301 300 298 298 297 297 297 296 295 295 295 294 294 294 294 293 293 294 294 294 293 293 293 292 292
Wind_Speed
13 12 11 10 9 9 8 7 6 6 5 3 2 1 3 3 3 3 3 3 3 3 3 3 6 8 9 9 12 13 14 18 18 17 15 13 13 13 12 11 13 14 12 11 12 10 8 8 8 7 6 7 8 9 10 10 11 11 10 9 10 10 10 10 9 10 11 11 11 11 10 10 10 10 10 10 11 11 10 10 10 12 13 11 9
14 13 12 11 9 8 8 8 7 7 6 4 3 1 2 1 3 4 4 3 3 3 3 4 7 11 11 11 12 13 14 17 15 14 14 13 14 14 12 11 11 14 13 12 12 10 9 9 8 6 6 6 8 8 9 10 10 11 10 9 10 10 10 9 9 9 9 9 10 10 10 9 9 9 9 10 10 11 10 11 11 12 14 12 9
14 14 13 11 10 9 9 8 8 7 6 4 3 2 1 1 2 4 5 4 5 5 5 5 8 12 12 11 10 11 13 14 12 11 12 12 14 14 13 12 11 12 14 13 12 10 10 9 7 5 6 7 8 8 8 9 10 10 10 9 9 9 9 9 9 9 8 8 9 9 8 9 8 9 9 10 10 10 11 11 11 12 12 12 11
14 13 12 10 9 10 9 8 7 6 5 4 4 3 1 2 2 4 5 4 5 7 7 6 9 12 12 9 9 10 10 12 11 10 11 11 14 15 14 14 12 11 13 13 10 10 11 9 8 6 6 7 8 8 8 8 9 9 9 8 8 8 8 8 9 9 8 8 8 8 8 8 8 9 10 10 11 10 10 10 10 11 10 11 12
13 11 10 9 9 9 9 8 7 6 5 5 4 4 3 2 2 4 5 4 5 7 7 8 11 12 10 8 7 9 9 10 10 10 10 11 15 16 16 15 13 12 13 12 10 10 10 9 8 7 7 8 8 8 8 8 8 8 8 8 8 8 8 8 8 9 9 8 8 7 7 7 8 8 8 9 10 10 9 9 9 10 10 10 10
12 11 10 9 9 9 9 8 7 6 6 6 5 3 3 3 3 4 6 6 7 7 7 10 12 10 9 7 6 8 8 8 8 9 9 11 14 16 16 15 14 13 12 12 11 10 9 8 9 8 8 8 7 7 7 7 7 7 7 7 7 8 8 8 8 8 8 8 7 7 7 7 7 7 7 8 8 8 8 8 9 9 9 9 9
12 11 9 10 10 9 8 7 6 6 6 6 5 4 4 3 4 5 6 7 8 9 9 11 11 10 9 7 6 6 6 6 8 8 7 11 15 16 16 15 14 13 12 11 12 10 8 8 8 8 8 6 5 6 6 6 6 6 6 6 6 7 8 7 7 7 8 7 7 7 6 6 6 6 7 7 7 7 7 7 8 8 8 9 9
11 10 10 11 10 9 8 7 6 6 7 8 7 6 5 4 4 5 6 8 9 10 10 11 11 10 9 8 7 6 6 7 8 7 7 11 16 16 15 15 13 13 12 12 12 10 8 8 7 7 8 6 5 6 6 5 5 5 5 5 6 6 7 6 6 6 7 7 7 6 5 5 6 6 5 6 7 6 6 6 7 7 7 8 8
12 10 10 10 9 8 8 7 7 8 8 9 8 7 5 4 5 5 6 8 9 10 10 10 10 9 9 8 8 8 8 7 7 6 7 12 16 16 15 14 13 12 12 12 12 10 10 10 7 7 8 6 6 6 5 5 5 5 5 5 5 6 6 6 6 6 6 7 7 6 5 4 5 5 5 5 6 6 5 6 6 6 6 7 7
11 10 9 9 8 8 9 8 9 9 9 9 8 7 5 4 6 6 7 9 9 10 10 9 9 9 8 9 8 8 7 7 7 7 8 11 14 15 15 14 13 12 11 11 11 11 11 11 9 8 8 7 7 6 5 5 5 7 5 4 5 7 7 7 7 7 7 7 6 5 3 3 5 4 4 4 5 5 5 5 5 5 5 6 6
9 9 9 9 8 8 9 8 9 9 9 8 7 6 5 5 6 6 7 8 9 10 10 9 9 8 7 8 8 6 6 6 7 7 7 10 12 13 14 14 13 11 11 10 10 11 11 11 10 10 10 9 8 7 6 6 6 7 6 4 6 7 7 7 8 8 9 8 6 5 3 3 5 4 3 3 3 4 4 4 4 4 4 5 5
8 8 8 7 7 8 7 7 7 8 8 7 6 5 5 5 6 6 7 9 9 10 8 7 8 9 9 10 8 7 7 7 7 6 6 7 8 9 12 14 13 11 11 10 10 10 10 10 11 11 10 9 8 8 8 7 6 8 7 5 7 6 6 8 8 8 9 8 7 6 6 5 4 4 3 2 3 3 3 3 4 3 3 3 4
8 7 6 7 7 7 7 6 7 7 7 6 5 5 6 6 6 6 7 10 10 10 9 8 8 8 9 11 10 10 10 10 8 6 5 5 5 6 9 11 12 11 11 10 9 10 9 9 9 9 9 7 8 9 9 9 8 8 7 7 6 5 5 5 6 7 7 6 6 6 6 6 5 4 4 3 3 4 3 3 3 2 2 2 2
8 7 7 7 7 8 8 7 7 7 7 7 5 6 7 6 6 7 8 10 10 11 12 8 6 7 8 9 9 10 11 12 12 10 7 5 4 5 6 7 9 10 11 11 10 10 9 8 8 8 8 7 7 9 10 10 10 9 7 6 5 4 3 3 3 5 7 5 5 5 4 4 5 5 5 5 4 4 3 3 2 2 2 2 1
9 8 9 9 9 10 10 9 10 9 8 8 7 6 7 7 6 7 9 11 10 10 10 7 9 10 9 5 3 5 7 10 12 12 9 8 6 5 6 6 7 9 10 9 9 9 9 9 8 8 8 7 7 8 10 10 10 10 8 6 4 3 2 2 2 4 7 6 4 4 4 3 3 4 4 4 4 4 3 2 2 2 2 2 2
11 11 11 11 11 11 11 10 10 9 8 7 7 7 7 6 6 6 9 12 11 8 7 10 14 12 6 3 2 2 2 4 9 11 9 8 7 6 7 8 7 7 7 6 6 7 9 8 8 9 9 8 8 8 9 10 9 9 8 6 4 2 2 2 1 3 6 6 5 5 3 2 3 3 3 3 3 2 2 0 1 2 2 3 5
14 13 12 10 11 11 11 10 9 9 8 7 8 7 6 6 6 5 7 10 11 9 8 12 14 10 6 5 4 2 1 4 6 8 8 8 7 6 7 7 8 6 5 5 4 5 6 6 6 7 7 7 9 9 9 10 9 8 5 3 3 2 2 0 1 1 4 6 5 6 5 5 4 2 1 1 1 0 0 1 2 1 0 2 5
13 12 10 10 10 10 10 10 10 11 11 10 10 9 8 6 5 5 6 8 10 12 11 12 11 8 9 8 3 3 8 8 4 3 6 9 7 6 7 7 7 6 6 5 4 4 3 3 2 2 2 4 6 6 7 6 5 4 2 1 3 3 2 1 2 2 3 5 4 3 4 5 5 5 5 5 5 3 2 3 4 4 5 2 1
12 11 10 9 9 10 10 10 10 11 11 11 11 10 9 6 5 5 7 8 11 13 13 12 10 8 9 8 7 8 16 11 5 4 3 5 7 6 7 9 9 7 6 5 5 4 4 3 4 4 3 2 1 1 1 1 2 1 3 3 2 2 1 1 2 1 2 3 2 1 1 1 2 2 4 5 4 3 3 5 7 8 8 5 3
14 12 10 9 9 11 12 12 12 12 11 10 10 9 9 8 7 7 8 9 10 12 14 12 12 10 8 6 5 12 14 9 11 13 5 2 4 4 6 9 10 8 6 6 6 6 6 6 6 5 5 3 3 3 3 4 3 4 6 6 6 6 6 6 4 2 2 3 4 3 3 4 4 4 3 1 1 1 2 4 6 8 9 8 8
15 13 10 9 10 12 13 13 12 12 11 10 10 10 11 10 10 11 11 10 9 11 12 11 11 12 10 8 9 13 11 8 15 16 8 5 3 1 5 9 9 7 7 8 8 8 8 8 8 8 8 7 6 6 7 7 7 8 9 10 10 11 11 11 10 8 8 9 9 8 9 9 9 9 8 7 5 4 2 2 2 4 5 6 7
14 13 11 10 13 15 14 13 11 11 12 12 12 12 13 13 12 12 12 12 11 10 10 10 10 10 10 11 11 13 10 8 12 14 9 5 4 4 7 8 8 7 7 10 11 9 8 8 9 10 10 10 10 9 9 10 11 11 12 12 11 12 12 13 13 13 13 13 12 11 11 10 10 9 8 8 7 6 6 5 4 4 4 3 3
14 14 13 14 17 17 16 14 13 13 14 13 13 13 13 13 13 13 13 13 13 11 10 10 10 9 9 11 13 14 11 8 12 14 10 6 6 6 7 10 10 9 10 12 12 11 10 10 11 12 12 11 11 10 11 12 13 13 13 13 13 12 12 13 13 13 12 12 12 11 10 9 9 9 8 8 8 8 8 7 7 7 7 6 5
14 14 14 16 19 19 17 17 16 15 15 14 13 13 13 14 14 15 16 16 17 16 15 14 12 11 10 9 11 12 11 11 16 17 15 16 14 8 8 11 10 10 14 13 11 11 12 11 11 12 12 11 11 12 12 13 13 13 13 13 13 12 12 11 11 11 11 10 10 10 9 9 9 9 9 8 8 8 8 8 7 7 7 7 6
15 15 15 17 19 19 17 17 17 15 15 14 13 12 12 14 15 17 18 17 18 18 19 18 16 14 12 10 10 10 11 13 16 16 19 22 18 11 10 11 10 12 13 11 10 10 11 12 12 11 11 12 12 12 12 13 13 12 12 13 13 12 11 11 10 10 10 10 10 10 10 10 9 9 9 9 9 8 8 7 7 6 6 6 6
17 16 16 17 18 18 17 18 16 15 14 13 12 12 12 14 15 17 17 16 16 17 17 18 17 16 13 11 11 10 10 13 14 18 22 22 19 16 12 10 11 12 9 9 10 8 8 10 11 11 10 11 11 11 11 11 12 11 10 11 12 12 12 12 12 12 12 12 12 12 12 11 11 11 10 10 10 9 9 8 8 7 6 6 5
17 16 16 17 17 17 17 18 16 15 14 13 13 13 14 16 17 17 17 15 15 15 15 16 17 17 16 14 12 10 9 10 13 18 22 22 20 19 16 10 7 6 6 8 7 6 9 10 10 9 9 10 10 10 10 11 11 11 10 11 13 14 14 14 13 13 13 13 13 13 12 12 12 12 12 12 12 12 11 11 10 10 9 8 7
18 16 16 17 17 17 17 17 17 15 14 14 16 16 17 19 19 18 17 15 14 14 14 15 16 17 18 18 16 14 10 9 12 18 19 19 18 17 18 17 10 3 3 4 3 5 11 10 8 8 8 9 10 10 10 12 12 11 11 11 12 13 13 13 14 14 15 16 16 15 14 13 13 13 13 14 15 15 15 14 13 12 11 11 10
18 17 16 18 18 17 17 18 17 15 15 16 17 16 17 19 20 19 17 15 14 14 14 15 14 15 17 19 19 18 14 11 13 16 17 17 16 14 18 21 18 10 4 2 4 7 10 9 8 8 8 8 10 10 9 10 11 11 10 10 11 11 12 13 15 16 17 18 18 17 17 16 15 15 16 18 19 20 20 20 18 16 14 13 12
18 17 17 18 19 18 18 17 16 15 16 16 16 15 16 19 20 19 17 16 17 17 15 15 14 14 16 18 18 19 18 16 15 15 15 14 14 15 19 22 22 18 12 6 4 8 12 10 8 10 10 9 9 9 8 8 9 10 9 9 10 10 11 12 13 13 13 14 15 16 16 15 15 14 15 17 19 22 23 24 23 20 18 16 15
18 18 19 19 19 18 17 16 15 15 15 16 16 16 16 17 19 19 17 17 17 16 14 14 14 14 15 16 16 16 17 17 16 15 14 11 10 15 22 25 24 23 21 13 5 8 14 11 9 11 11 10 9 8 8 8 7 7 8 8 9 9 9 9 9 8 8 10 12 12 12 13 13 13 13 14 17 19 22 24 24 22 19 17 16
18 19 20 19 19 18 17 17 16 16 17 17 16 16 16 17 18 19 17 16 15 14 13 12 12 13 15 15 13 12 13 15 15 14 12 10 8 12 22 27 26 23 22 17 9 8 14 12 10 12 11 10 9 7 7 8 7 6 6 6 6 6 6 6 6 6 6 8 9 9 9 9 10 11 12 13 15 17 19 22 24 23 20 17 16
19 20 19 19 19 19 18 18 17 17 17 17 16 15 16 17 17 17 15 14 14 13 12 12 11 11 13 13 11 10 10 11 12 13 12 10 9 12 20 25 25 23 20 18 14 11 12 12 12 13 11 10 9 6 6 7 7 6 6 5 4 3 3 3 3 4 4 5 6 7 7 7 7 8 10 12 14 15 17 20 23 23 21 18 16
19 19 18 19 18 17 18 18 17 17 17 17 16 16 16 16 15 15 14 14 14 13 12 12 11 9 9 10 10 9 8 10 12 13 13 12 12 15 21 23 23 21 18 16 17 14 11 12 14 14 12 11 10 8 6 4 4 5 5 5 4 4 3 1 1 1 2 3 5 7 7 6 5 6 8 10 12 14 16 20 22 22 20 18 16
18 17 17 18 17 17 19 19 17 17 17 16 16 15 14 14 15 16 16 15 15 14 13 12 10 9 7 8 9 8 8 10 11 12 13 14 14 17 20 20 20 19 16 15 16 16 13 13 15 15 14 12 10 9 7 5 4 3 3 3 5 6 5 3 1 1 1 2 4 6 8 7 5 3 6 9 11 12 16 20 21 20 19 17 16
18 17 17 16 16 18 19 18 16 16 16 16 17 16 13 13 16 17 16 15 14 13 13 13 12 10 9 9 9 8 8 10 10 11 13 15 15 16 17 16 16 15 14 14 14 16 15 14 13 13 14 12 10 10 10 8 5 6 5 5 7 7 6 4 2 1 2 2 4 6 8 9 7 4 4 7 10 13 18 20 19 18 17 15 14
19 18 17 17 17 18 18 18 17 16 15 16 18 17 14 13 16 17 16 14 13 13 13 13 12 12 11 10 10 8 8 10 10 10 13 14 15 15 15 14 14 13 12 11 11 13 15 14 12 9 9 10 9 9 11 8 5 4 3 3 4 4 4 3 2 0 1 2 3 4 5 6 5 4 5 8 13 17 19 19 18 17 16 14 13
21 19 19 19 19 18 18 18 18 17 16 17 17 17 16 15 15 15 15 14 13 12 13 12 12 12 12 11 11 9 8 9 9 9 11 12 12 13 14 14 13 13 12 10 9 11 13 13 10 7 6 6 6 7 10 9 6 4 3 6 8 7 6 5 3 2 1 2 1 2 3 5 7 8 11 15 18 19 19 19 18 17 15 14 12
22 21 21 20 19 19 19 19 19 18 17 18 17 17 16 15 15 14 13 13 12 12 11 11 11 11 11 11 11 11 9 8 9 8 8 10 10 11 11 12 12 12 13 11 10 11 11 10 8 6 4 4 5 6 8 8 7 5 5 7 8 6 5 3 1 1 2 2 2 3 5 9 12 15 17 19 20 19 18 18 16 16 15 14 12
24 22 22 22 20 19 19 19 19 19 19 18 18 17 16 15 15 15 13 12 12 12 11 11 11 10 11 11 11 11 10 8 8 7 7 8 10 10 10 10 10 12 13 13 11 11 10 8 7 6 4 3 3 5 8 8 7 6 6 7 6 3 2 1 3 3 3 3 4 6 10 14 17 18 19 20 18 16 15 14 14 15 15 13 12
24 22 22 23 21 19 19 18 18 19 19 18 18 17 16 15 15 14 13 12 11 12 12 12 12 11 12 12 12 11 11 10 8 7 7 7 8 9 9 8 8 10 11 10 9 9 8 7 6 5 5 4 2 4 6 7 5 5 5 4 4 3 2 3 3 4 5 8 10 12 15 18 20 19 19 18 16 14 14 13 13 13 12 11 11
23 22 22 22 22 20 19 18 17 18 17 17 18 17 16 15 15 13 12 12 11 11 12 13 13 12 12 12 12 11 11 10 9 9 9 8 7 8 8 7 6 6 7 7 7 7 8 7 6 5 4 3 2 4 6 5 5 5 4 2 1 1 3 5 5 6 9 13 16 17 18 19 18 17 15 14 13 12 11 10 10 10 10 10 11
22 21 21 22 22 21 20 19 18 17 17 16 17 16 16 16 15 13 13 12 12 12 13 13 14 14 13 12 12 12 11 11 11 10 11 10 9 8 7 6 4 4 5 6 7 7 8 8 6 5 5 6 6 7 7 7 5 3 2 2 3 5 7 7 7 9 13 16 17 17 17 17 15 13 11 9 9 10 10 10 10 10 11 12 12
21 22 22 22 21 20 20 19 18 17 17 17 16 14 14 14 14 13 13 12 11 12 12 12 13 14 15 14 13 13 12 11 12 12 11 10 9 8 7 6 5 5 5 5 6 6 7 8 7 5 5 6 7 6 6 5 3 2 3 4 6 7 8 8 8 10 14 15 15 15 15 14 11 9 7 7 7 9 11 11 11 12 12 12 13
21 21 21 20 20 19 19 18 17 17 17 17 16 14 13 13 13 13 12 11 11 10 10 11 13 15 16 16 15 14 13 12 12 12 11 10 9 7 5 5 4 4 4 5 5 5 6 6 6 5 4 4 4 4 3 2 1 3 6 8 9 9 9 9 9 10 12 12 12 12 12 9 7 5 5 6 7 9 11 12 12 13 14 13 13
18 19 18 18 18 18 18 17 17 17 17 17 15 14 13 13 14 13 12 12 11 9 10 13 15 15 16 17 17 16 16 14 14 13 11 10 9 7 6 6 5 4 4 4 4 5 5 5 5 5 4 4 4 3 1 2 4 6 8 8 8 9 9 8 8 8 9 8 9 10 8 5 4 4 6 8 10 11 12 12 14 15 15 15 15
14 15 16 16 17 17 17 17 16 17 17 15 14 13 13 14 14 13 13 14 12 9 10 14 15 15 15 16 18 18 17 17 15 13 11 10 9 9 9 9 8 8 7 6 6 5 3 3 3 4 5 5 3 1 2 5 6 7 8 7 8 8 7 7 6 5 5 7 9 8 5 4 6 7 9 11 13 14 13 13 15 16 16 16 17
13 14 14 15 16 17 17 16 16 16 16 14 14 14 14 15 14 14 13 14 13 11 11 14 15 16 16 17 17 16 17 17 16 13 11 9 9 9 10 10 9 9 8 8 8 7 6 6 6 5 5 3 1 2 3 5 5 5 6 6 6 6 5 6 5 4 6 8 9 7 5 5 8 11 13 15 17 18 16 15 15 15 15 18 20
14 15 15 15 15 16 16 17 17 17 16 15 15 15 15 16 15 14 14 14 14 14 13 14 15 16 18 19 18 17 17 17 16 13 11 9 9 9 10 10 10 9 9 9 8 7 6 6 5 4 2 1 1 1 2 2 3 3 4 5 5 4 5 5 3 4 8 8 7 7 8 8 10 13 15 17 18 18 17 15 15 15 18 21 21
14 15 15 15 16 17 17 17 17 16 15 15 15 15 16 17 15 13 14 17 18 17 16 15 15 17 19 20 19 17 17 16 14 12 11 10 10 10 11 12 12 10 10 10 8 8 7 6 4 3 2 1 1 1 1 2 3 4 4 5 4 4 4 4 4 6 8 6 6 10 11 11 12 14 16 18 18 16 14 13 15 18 20 20 18
12 13 14 14 15 15 15 15 14 13 14 16 17 16 16 16 15 14 16 19 20 19 19 18 18 18 19 19 17 16 15 14 12 11 10 10 10 10 11 12 13 11 10 10 9 8 7 5 4 3 2 2 2 1 1 2 3 4 4 4 4 4 4 4 5 7 5 4 7 13 14 13 13 14 15 14 12 11 11 13 16 19 20 18 17
Wind_Direction
168 167 166 160 154 152 155 161 165 173 182 191 209 333 341 353 28 40 91 88 70 52 54 86 65 66 75 89 126 151 161 161 160 163 169 173 169 162 161 155 150 158 164 158 156 155 151 149 147 131 107 115 127 126 128 127 123 122 122 123 121 122 121 115 112 115 118 117 115 113 111 108 105 106 107 106 106 100 96 101 105 111 113 105 105
174 172 174 171 168 169 173 181 187 193 200 202 200 249 338 25 54 46 79 90 69 59 64 101 73 70 90 100 124 152 166 169 176 181 179 175 167 161 166 166 155 157 166 167 163 158 152 156 159 145 128 127 130 130 129 128 123 122 124 126 126 125 122 118 117 116 117 119 118 114 112 110 108 109 109 108 105 99 97 94 92 102 109 106 106
182 179 179 180 183 187 187 190 197 203 211 214 215 243 322 63 54 47 78 89 68 68 80 107 82 75 93 104 123 151 168 173 181 184 178 176 171 169 173 174 165 159 167 173 170 163 151 158 172 159 146 136 129 136 136 129 126 124 125 127 127 127 126 124 124 122 120 120 119 117 114 112 111 109 108 108 104 100 99 98 96 98 102 110 110
190 188 185 186 194 200 199 199 207 211 211 211 218 225 197 77 75 65 77 87 74 74 83 97 90 85 92 105 130 153 170 176 181 183 184 187 180 175 176 176 173 163 167 178 180 169 154 156 171 169 160 149 137 136 134 129 127 127 128 131 133 136 136 132 129 128 127 123 121 121 120 118 116 114 115 115 112 108 105 105 105 103 101 112 120
195 191 187 187 195 198 198 200 207 212 202 195 198 199 176 122 108 86 81 86 78 80 90 96 94 93 96 110 143 157 168 177 180 181 185 189 181 178 178 179 180 171 170 183 188 175 162 156 162 176 186 168 151 140 132 130 130 131 132 135 141 145 146 142 138 136 135 131 126 124 125 125 124 122 123 125 122 117 113 112 111 111 107 111 127
198 189 185 184 184 185 192 198 200 201 191 185 184 173 151 134 124 105 93 90 84 85 94 99 99 103 108 124 152 158 170 177 175 178 185 186 181 179 179 181 185 180 178 184 190 186 178 167 157 174 197 182 167 158 146 139 138 139 135 137 146 152 154 149 145 143 138 133 130 129 125 123 126 126 127 129 127 121 119 117 112 114 113 112 121
195 188 186 184 183 182 187 190 190 190 183 178 181 182 171 146 125 114 103 94 90 93 97 103 110 117 123 130 139 144 166 170 168 177 181 181 180 180 183 186 187 186 184 183 189 195 194 185 168 169 187 187 180 184 178 161 150 146 139 138 141 147 152 151 151 147 138 137 135 127 119 121 127 127 130 131 127 125 126 124 117 115 113 110 112
192 186 185 185 182 179 177 176 177 179 175 172 176 185 184 157 131 123 114 98 91 100 108 111 117 128 134 136 135 142 153 153 165 174 170 177 181 182 185 189 192 191 190 186 189 198 201 199 185 170 178 175 164 193 207 186 169 161 144 138 136 136 137 137 147 150 146 142 134 127 121 123 132 130 131 131 125 124 125 127 125 119 116 114 114
184 176 173 174 170 164 162 162 166 169 169 168 169 171 169 160 151 138 117 102 95 106 117 122 128 135 142 140 134 142 149 156 170 166 161 175 180 183 186 190 193 194 195 194 194 197 199 205 204 180 181 177 167 198 217 189 200 202 163 141 138 138 132 123 124 138 152 149 135 133 134 132 135 129 127 131 128 125 127 130 132 128 126 125 121
171 168 163 162 160 157 158 157 159 162 165 165 165 160 150 154 158 143 121 113 107 107 117 132 140 140 142 135 125 133 151 164 165 152 157 174 180 185 187 191 193 191 193 198 200 197 196 202 207 195 188 189 182 194 205 184 208 218 190 165 155 144 132 120 113 113 122 136 134 127 128 141 139 121 108 126 134 131 131 133 133 136 135 133 130
165 169 163 159 158 158 158 156 153 158 163 165 165 155 139 140 146 143 136 128 115 112 120 130 139 142 137 125 115 121 141 153 154 145 152 167 177 188 191 193 195 191 189 194 198 197 199 201 205 204 197 197 194 190 195 192 208 224 216 190 172 153 131 117 114 112 105 110 122 115 101 128 146 136 97 102 133 139 135 133 132 133 136 138 138
164 169 163 156 156 156 155 152 149 154 163 167 165 153 148 147 142 143 145 140 126 118 129 141 143 139 120 111 108 95 100 116 132 139 146 158 172 188 193 194 196 195 191 191 195 196 200 202 203 206 204 207 205 196 199 199 207 228 231 204 187 178 158 133 114 112 110 106 105 98 85 91 120 139 118 92 122 132 123 125 124 121 129 138 142
158 157 153 151 156 154 151 151 147 151 165 172 169 164 165 163 154 150 146 147 135 122 134 146 143 130 104 96 89 78 83 92 98 104 120 141 163 185 190 193 194 198 197 191 191 198 202 202 201 204 204 204 201 195 202 208 211 226 233 220 208 204 194 167 129 118 125 120 108 97 84 81 87 110 126 120 126 127 110 104 108 110 121 127 137
149 145 146 151 157 154 147 146 145 150 159 161 161 164 165 165 165 161 154 151 141 134 140 142 143 134 110 91 75 72 79 80 81 83 92 111 140 168 176 183 186 197 204 197 191 199 206 206 201 202 201 198 197 198 207 215 220 229 241 245 229 203 185 181 168 150 144 131 112 101 87 86 86 94 111 115 123 130 113 86 71 80 109 117 131
147 145 143 143 145 144 139 136 137 140 143 145 148 153 157 162 162 160 160 152 141 144 150 160 165 144 118 106 84 75 71 66 69 73 80 90 101 133 148 158 175 194 204 202 197 197 206 209 206 211 211 202 205 213 217 221 226 233 246 262 265 248 229 211 205 185 164 147 131 119 100 101 105 100 108 109 110 117 114 91 59 58 74 76 69
134 134 131 128 128 130 130 130 131 130 133 143 151 148 144 152 149 145 159 156 146 148 154 163 165 153 123 106 109 98 74 65 66 63 76 89 84 100 131 153 171 186 193 197 202 201 210 215 216 225 225 209 209 221 227 227 229 234 245 261 279 298 281 245 223 210 177 158 168 181 166 147 134 103 91 93 93 94 96 72 15 33 51 63 64
129 128 126 125 127 130 128 129 130 125 124 136 148 145 131 134 137 135 157 162 154 149 150 158 163 170 174 147 112 97 174 152 103 65 70 87 89 96 118 153 173 175 175 181 192 201 214 220 219 231 239 224 215 222 230 230 232 236 238 258 280 290 283 280 75 141 174 168 185 203 210 212 196 186 214 231 244 258 50 298 293 294 231 74 68
133 131 131 134 138 139 135 134 136 130 124 127 133 134 127 126 133 137 151 166 162 153 154 164 167 179 191 191 227 211 162 154 135 70 78 87 91 102 111 132 153 157 158 161 160 159 172 189 187 187 222 233 219 223 233 226 218 228 226 314 311 300 274 205 102 89 154 177 190 198 209 221 217 213 219 236 261 285 313 288 286 279 258 250 32
141 141 145 150 148 148 146 143 142 138 132 128 128 129 129 126 134 145 145 157 165 158 156 164 165 169 187 211 252 197 158 148 150 143 118 90 89 102 119 123 129 136 135 131 125 116 115 124 127 128 136 173 195 196 241 81 96 76 46 38 18 4 354 154 173 200 174 154 126 104 170 220 250 232 224 244 272 292 290 274 278 286 279 272 285
148 148 150 157 155 151 149 142 139 140 135 128 128 132 132 125 125 136 141 152 162 157 154 161 163 164 177 192 203 174 157 147 151 143 125 105 100 96 116 115 115 118 116 111 106 103 106 113 121 121 119 113 100 96 87 74 77 80 75 75 78 73 73 82 100 163 157 106 107 112 109 87 64 63 70 47 1 314 289 278 273 285 292 285 275
152 149 144 154 160 154 149 142 135 136 133 129 129 132 133 128 123 127 134 142 150 150 150 157 162 164 171 166 158 162 155 136 142 138 125 135 138 150 127 109 102 103 112 119 114 112 112 110 108 104 99 98 96 95 94 94 95 97 95 91 88 87 86 86 93 109 109 99 101 99 94 89 80 76 76 73 68 69 56 15 322 307 309 297 288
152 148 139 147 155 150 145 142 137 133 133 135 136 134 135 131 126 126 128 131 135 142 145 146 153 160 167 165 157 155 147 131 139 138 131 127 122 147 143 123 112 102 107 119 117 112 104 97 96 98 102 102 103 102 99 99 99 99 99 96 95 91 89 90 95 103 105 101 99 95 91 90 88 85 82 78 71 68 68 59 47 40 33 22 8
149 144 134 136 143 140 135 133 132 129 130 134 137 138 136 133 129 126 124 123 125 133 140 143 149 155 163 170 168 163 160 160 158 151 143 134 129 132 132 126 119 112 118 117 110 102 93 91 93 95 102 105 106 107 103 103 101 99 99 97 96 94 92 93 95 98 100 99 99 95 91 86 83 82 77 74 70 65 65 62 57 53 51 51 42
151 148 136 134 139 138 132 132 131 130 132 132 135 138 136 134 128 123 122 119 118 120 122 125 130 136 146 160 169 175 182 180 168 160 155 149 142 132 134 131 112 115 130 121 105 101 95 92 93 95 101 103 105 105 103 102 99 97 98 97 96 97 97 96 96 97 95 93 92 88 84 79 74 72 69 68 65 63 62 59 55 52 49 46 41
153 152 143 138 140 141 138 138 138 138 140 140 142 145 143 138 128 123 123 120 118 115 112 111 110 112 123 136 149 166 180 178 170 162 155 149 141 132 138 136 120 128 135 124 114 110 103 99 96 98 101 101 101 100 97 95 93 94 95 96 96 96 96 95 94 93 89 85 83 80 78 75 72 69 65 62 59 56 54 51 47 43 40 35 31
154 153 150 143 141 142 143 144 145 144 146 148 150 152 153 147 133 124 122 121 119 113 107 105 103 102 106 116 127 139 158 170 171 161 154 151 145 140 137 124 121 131 135 135 135 127 117 112 102 101 104 103 102 101 99 97 94 94 96 99 100 96 94 93 90 87 85 81 78 76 75 73 71 67 64 59 54 50 45 41 36 31 27 20 15
158 156 157 152 145 144 145 147 148 146 147 149 147 144 145 145 136 126 121 124 124 117 111 107 103 100 100 102 107 111 128 153 166 163 157 153 150 146 142 128 115 120 124 137 146 146 143 129 110 108 108 105 109 108 105 101 96 97 99 102 102 99 95 91 89 85 81 76 72 68 66 64 62 60 57 52 47 43 37 31 26 21 17 12 6
164 164 165 162 154 147 147 149 150 148 146 145 141 135 135 138 136 129 124 127 128 122 118 114 107 103 100 97 97 96 105 132 153 159 157 154 152 154 155 149 141 127 113 125 141 154 152 140 121 123 116 107 111 112 108 103 97 95 100 103 100 98 95 90 89 86 79 73 65 60 56 55 55 54 53 51 47 43 36 29 22 15 10 5 1
168 168 169 168 162 152 147 149 151 150 145 143 141 136 135 137 135 130 126 126 125 122 121 118 114 110 105 101 96 95 106 129 148 158 163 165 166 172 173 165 154 144 137 150 170 177 174 165 148 144 138 122 115 117 118 111 103 99 106 111 102 96 97 95 94 90 81 71 62 58 56 55 57 58 59 58 54 49 42 35 27 18 10 3 356
170 170 168 167 164 158 152 150 151 152 148 147 147 143 139 137 134 129 125 123 118 115 118 119 119 119 113 109 102 97 106 127 147 159 167 178 187 187 184 179 170 160 155 155 176 191 186 179 167 158 153 143 128 121 124 123 111 103 109 116 107 99 102 100 98 93 79 67 59 56 55 53 52 50 49 50 47 44 40 34 29 22 16 10 4
173 171 166 162 160 160 159 156 155 154 154 153 149 145 141 138 137 132 126 125 120 115 115 116 121 128 126 121 114 105 106 121 137 148 151 160 180 187 187 188 185 176 165 153 154 193 187 179 170 160 150 146 142 126 122 129 123 107 108 118 112 103 104 102 97 91 77 63 55 54 54 51 46 39 33 32 32 32 31 28 25 21 15 10 6
172 167 163 162 161 161 160 158 154 152 152 150 147 142 137 135 136 134 129 127 124 123 125 124 126 131 134 132 123 114 112 117 126 135 141 144 153 181 192 190 186 182 175 159 142 172 185 181 168 163 158 153 152 141 127 129 135 128 121 128 128 116 109 102 91 83 74 60 50 48 49 47 46 40 32 26 23 23 23 20 17 15 11 5 359
169 165 164 165 164 163 162 161 158 155 152 151 149 145 139 136 137 136 135 133 130 131 136 140 140 136 134 131 120 114 116 114 119 131 140 144 143 164 184 184 178 179 179 163 144 153 179 184 174 170 173 171 165 162 149 137 142 149 147 153 164 160 139 113 93 81 73 56 39 35 34 35 44 41 33 27 21 18 16 11 8 7 5 360 352
173 171 168 167 165 165 166 165 164 160 156 154 152 152 150 148 147 146 146 147 145 144 146 147 147 146 142 129 113 109 113 113 121 134 140 143 145 152 165 170 169 174 180 167 151 152 167 182 183 179 183 189 186 182 176 158 154 164 170 181 195 206 209 197 75 64 70 44 22 18 11 7 20 36 35 26 16 12 7 0 357 357 357 352 345
176 175 169 167 167 167 169 169 168 165 163 161 159 160 163 163 163 161 158 158 158 156 155 153 151 153 153 139 121 113 117 117 118 127 136 140 145 147 152 158 161 167 176 172 159 155 158 171 184 188 192 199 203 203 201 191 191 207 209 220 234 231 228 237 305 323 304 349 1 0 352 344 343 12 28 17 7 2 355 349 349 350 350 345 338
175 176 172 173 172 171 172 172 171 173 172 170 169 170 170 166 166 167 164 165 169 167 162 158 155 154 153 148 141 132 131 129 121 123 132 136 141 143 145 152 160 164 171 173 168 164 162 165 176 189 197 205 213 217 215 212 219 235 245 257 256 248 242 240 248 314 323 321 336 340 335 331 326 327 359 2 352 346 342 342 344 345 343 338 333
176 179 179 181 180 176 175 175 175 177 176 174 175 179 179 171 166 169 171 172 174 173 171 168 163 164 164 159 156 153 147 142 134 132 135 135 136 138 140 144 150 156 163 169 174 172 170 172 173 174 187 202 217 223 221 217 208 207 220 228 213 204 201 197 187 150 1 326 324 334 338 343 348 350 352 345 340 339 340 343 344 342 338 333 330
177 180 182 187 188 185 184 183 182 183 183 182 183 184 183 180 176 174 177 180 180 176 175 175 172 172 175 171 167 169 167 160 155 148 144 143 138 135 135 137 139 142 145 152 166 172 174 179 181 169 163 180 199 210 215 217 206 181 150 137 139 142 143 141 138 116 39 17 48 58 36 21 11 359 347 341 341 342 343 344 343 340 337 333 329
182 182 186 191 194 194 194 192 190 190 187 187 188 187 185 187 189 186 186 190 192 190 186 186 187 189 190 186 180 180 180 176 174 171 163 159 152 140 134 135 137 136 133 136 146 157 163 168 176 178 167 155 162 179 198 212 211 196 172 155 144 136 137 138 122 32 9 15 33 16 356 350 347 343 339 338 340 341 341 343 342 339 337 334 330
189 188 190 193 196 197 197 195 193 191 190 190 192 192 191 193 197 200 202 204 204 207 208 206 207 211 211 205 196 191 190 186 183 187 186 177 168 156 143 138 139 135 131 132 135 137 141 145 152 169 182 178 164 168 183 195 193 182 183 186 187 199 219 274 307 315 315 312 315 322 329 334 335 333 332 333 335 337 336 332 329 327 328 329 329
195 196 195 197 199 199 197 196 194 193 196 201 204 202 201 203 205 209 214 216 218 221 223 223 222 223 220 214 210 205 201 197 190 188 189 181 171 167 162 155 149 141 138 139 141 140 142 144 146 160 177 189 206 191 182 185 181 168 174 188 200 226 271 296 301 310 321 323 321 319 324 331 331 329 329 330 330 329 326 324 327 332 334 335 338
200 202 202 201 202 203 201 198 196 198 203 210 212 213 215 215 213 217 223 225 227 229 229 227 224 222 217 212 211 208 201 196 192 188 189 185 174 167 167 168 163 158 157 155 154 156 159 158 159 166 164 151 158 175 164 154 152 154 156 157 138 345 324 315 312 321 331 333 329 325 326 329 330 329 329 330 333 335 337 343 349 346 339 336 336
203 203 202 201 203 205 205 202 200 203 206 210 214 218 223 222 222 226 229 228 232 237 235 229 222 215 205 199 200 198 191 186 184 183 186 187 185 182 182 188 197 202 196 179 166 167 170 167 165 167 159 138 131 141 141 133 133 131 97 37 6 353 349 345 331 326 332 335 333 329 328 329 329 331 335 341 353 360 357 354 350 343 339 336 331
197 196 195 197 199 202 205 206 205 206 208 210 213 217 220 222 223 224 225 229 235 238 233 223 212 204 193 187 188 185 180 181 184 185 187 189 194 200 202 205 206 203 203 198 188 186 184 177 168 160 155 145 138 139 139 132 116 69 15 355 347 344 348 348 332 325 331 333 331 331 333 333 333 337 346 351 356 358 352 346 344 342 341 340 336
191 191 191 193 196 199 202 205 207 208 208 209 211 215 219 221 222 223 227 231 230 227 220 205 194 189 185 179 177 174 173 178 181 180 180 178 177 178 182 189 190 185 192 200 200 201 199 191 184 177 168 162 159 155 149 132 20 349 337 336 336 335 336 335 328 332 336 331 328 334 338 342 342 337 335 334 338 343 340 336 336 335 332 332 333
192 194 194 196 199 203 206 210 212 211 211 211 214 218 221 223 225 226 224 219 213 208 202 193 185 184 185 179 171 167 167 168 167 166 164 158 149 141 138 141 144 145 152 164 178 194 206 214 220 216 198 186 186 181 169 340 336 334 331 328 326 325 327 329 332 343 345 335 332 337 342 351 353 330 320 322 328 333 331 326 324 325 324 326 330
201 203 204 206 209 211 212 214 215 215 214 214 217 221 222 222 221 216 208 204 202 199 195 190 185 185 187 183 175 170 167 166 165 165 161 154 143 135 135 135 130 127 125 125 128 130 137 154 172 177 168 161 167 203 331 334 328 326 325 323 323 324 326 330 340 1 3 343 336 337 342 349 342 329 323 322 323 326 325 317 314 315 317 321 325
211 213 211 213 216 216 215 216 218 219 221 223 223 223 220 214 206 201 202 204 205 203 196 190 189 188 188 186 180 176 173 171 169 169 167 161 154 148 148 146 140 136 132 127 124 117 111 115 123 133 141 138 94 334 332 328 324 327 329 331 332 328 327 333 347 8 356 338 334 339 344 341 334 329 322 318 318 319 318 313 309 309 312 317 319
212 215 218 222 226 227 226 226 227 230 232 230 223 215 206 198 194 197 202 201 195 191 187 186 189 189 188 187 183 177 174 172 170 170 170 167 165 165 166 162 156 151 144 138 135 133 131 133 132 126 115 77 16 5 0 343 335 336 337 341 338 326 329 345 356 349 337 329 328 340 344 338 332 329 324 318 317 318 314 307 303 307 315 321 323
220 221 224 228 231 234 235 236 236 236 231 219 208 199 192 191 194 196 194 186 178 174 171 173 179 181 179 180 181 177 173 170 168 169 171 172 174 178 180 175 169 163 156 150 148 146 144 141 131 119 118 139 155 176 238 282 302 310 314 323 320 311 324 345 346 336 332 325 329 340 340 334 329 330 329 324 321 318 309 300 305 318 328 333 336
234 231 229 229 230 232 235 237 236 230 217 203 195 190 190 195 199 196 190 185 178 171 168 167 168 171 172 173 178 180 177 172 172 177 181 185 185 184 188 184 174 165 159 153 149 147 144 133 122 130 154 172 187 229 284 312 323 327 329 330 326 325 330 337 342 340 332 325 336 339 337 332 329 331 333 330 322 315 310 308 317 329 335 336 336